This is the latest recevied weather packets stored in our database for station/object KO6LQK. If no packets are shown the sender has not sent any weather packets the latest 10 day(s).
| Time | Temp. | Humidity | Pressure | Rain* | Wind** | Luminosity | Snow |
|---|---|---|---|---|---|---|---|
| 1788197649 | 27.78° C | 26% | 1021.5 hPa | 0 mm | - | 679 W/m² | - |
| 1788197345 | 27.78° C | 27% | 1021.5 hPa | 0 mm | - | 664 W/m² | - |
| 1788197041 | 27.78° C | 28% | 1021.5 hPa | 0 mm | - | 654 W/m² | - |
| 1788196741 | 27.22° C | 29% | 1021.5 hPa | 0 mm | - | 635 W/m² | - |
| 1788196437 | 27.22° C | 29% | 1021.4 hPa | 0 mm | - | 623 W/m² | - |
| 1788196150 | 26.67° C | 30% | 1021.2 hPa | 0 mm | - | 605 W/m² | - |
| 1788195829 | 26.67° C | 29% | 1021.2 hPa | 0 mm | - | 594 W/m² | - |
| 1788195525 | 26.67° C | 30% | 1020.9 hPa | 0 mm | - | 579 W/m² | - |
| 1788195221 | 26.11° C | 31% | 1021.2 hPa | 0 mm | - | 568 W/m² | - |
| 1788194918 | 26.67° C | 30% | 1021 hPa | 0 mm | - | 552 W/m² | - |
| 1788194613 | 26.11° C | 31% | 1021 hPa | 0 mm | - | 542 W/m² | - |
| 1788194309 | 26.11° C | 30% | 1020.9 hPa | 0 mm | - | 525 W/m² | - |
| 1788194005 | 26.11° C | 30% | 1020.9 hPa | 0 mm | - | 514 W/m² | - |
| 1788193702 | 26.11° C | 29% | 1020.7 hPa | 0 mm | - | 497 W/m² | - |
| 1788193398 | 25.56° C | 26% | 1021 hPa | 0 mm | - | 477 W/m² | - |
| 1788193097 | 26.11° C | 26% | 1020.9 hPa | 0 mm | - | 464 W/m² | - |
| 1788192793 | 25.56° C | 26% | 1020.9 hPa | 0 mm | - | 448 W/m² | - |
| 1788192488 | 25.56° C | 27% | 1020.9 hPa | 0 mm | - | 436 W/m² | - |
| 1788192183 | 25.56° C | 28% | 1021 hPa | 0 mm | - | 416 W/m² | - |
| 1788191883 | 25.56° C | 28% | 1020.8 hPa | 0 mm | - | 400 W/m² | - |
| 1788191578 | 25.56° C | 29% | 1020.9 hPa | 0 mm | - | 373 W/m² | - |
| 1788191274 | 25° C | 30% | 1020.8 hPa | 0 mm | - | 351 W/m² | - |
| 1788190970 | 25° C | 32% | 1020.9 hPa | 0 mm | - | 316 W/m² | - |
| 1788190668 | 25° C | 32% | 1020.8 hPa | 0 mm | - | 296 W/m² | - |
| 1788190364 | 25° C | 33% | 1020.9 hPa | 0 mm | - | 264 W/m² | - |
* Rain latest hour (hover to see other rain measurements)
** Current wind speed in m/s (hover to see current wind gust speed)